Location: Querceta
(43.9763°N, 10.1983°E)
Time: 20:18:42
(UTC+01:00)

ISS - Visible Passes

Search period start: 07 March 2021 00:00
Search period end: 17 March 2021 00:00
Orbit: 417 x 422 km, 51.6° (Epoch: 07 March)

Date Brightness Start Highest point End Pass type
(mag) Time Alt. Az. Time Alt. Az. Time Alt. Az.
07 Mar -2.1 04:58:45 24° NNW 04:59:40 27° NNE 05:02:36 10° ENE visible
08 Mar -1.1 04:13:11 20° NE 04:13:11 20° NE 04:14:48 10° ENE visible
08 Mar -3.5 05:46:09 12° NW 05:49:15 67° NNE 05:52:35 10° ESE visible
09 Mar -2.9 05:00:40 33° NNW 05:01:43 46° NNE 05:04:58 10° E visible
10 Mar -1.5 04:15:16 26° ENE 04:15:16 26° ENE 04:17:14 10° E visible
10 Mar -3.4 05:48:15 13° WNW 05:51:01 47° SW 05:54:15 10° SE visible
11 Mar -3.9 05:02:59 57° WNW 05:03:34 78° SW 05:06:55 10° SE visible
12 Mar -1.7 04:17:52 25° ESE 04:17:52 25° ESE 04:19:24 10° ESE visible
12 Mar -2.1 05:50:51 13° W 05:52:33 18° SW 05:54:53 10° S visible
13 Mar -2.5 05:05:55 26° SSW 05:05:55 26° SSW 05:08:08 10° SSE visible
